Find OneWeb SL0503

NORAD ID: 54121 Int'l Des: 2022-138 Owner: ONEWEBN Country: UK Constellation: oneweb operational
別名: ONEWEB-0503 spacetrack, celestrak
LEOCIRCULARPOLARONEWEB_TYPE

現在のビュー

3D地球を読み込み中...

About OneWeb SL0503

OneWeb SL0503 (NORAD 54121) is a oneweb constellation satellite launched Oct 22, 2022 by ONEWEBN of UK. It operates in LEO, CIRCULAR, POLAR, ONEWEB_TYPE orbit with a mass of 148.00 kg.

次回通過

Passes for default location (London). Set your location on the main map for personalized predictions.

高度履歴

Loading altitude history...

軌道要素

1 54121U 22138J 26238.57470845 .00000054 00000-0 10304-3 0 9990
2 54121 87.9152 290.9502 0002046 102.8438 257.2924 13.19725766186106
Epoch: Aug 26, 2026 • Age: 9 hours

現在のステータス

高度 1192.2 km
遠地点 / 近地点 N/A
速度 7.26 km/s
衛星直下点 46.91°N, 29.03°W
打ち上げ日 Oct 22, 2022
運用期間 3.8 years
タイプ internet

技術仕様

分類 Payload
質量 148.00 kg
乾燥質量 140.00 kg
総質量 148.00 kg
長さ 1.30 m
直径 1.00 m
スパン 5.00 m
形状 Trapezoid+2 pan
製造者 ONEWUS
バスタイプ ARROW
フェーズステータス In Orbit
所有者/国 ONEWEBN/UK

Most Searched